This is the latest recevied weather packets stored in our database for station/object 9W2JBV-1. If no packets are shown the sender has not sent any weather packets the latest 10 day(s).
| Time | Temp. | Humidity | Pressure | Rain* | Wind** | Luminosity | Snow |
|---|---|---|---|---|---|---|---|
| 1777711365 | 32.22° C | 56% | 1014.4 hPa | - | - | - | - |
| 1777710164 | 33.89° C | 54% | 1014.2 hPa | - | - | - | - |
| 1777708964 | 34.44° C | 53% | 1014.3 hPa | - | - | - | - |
| 1777707765 | 33.89° C | 53% | 1014.2 hPa | - | - | - | - |
| 1777706564 | 33.89° C | 54% | 1014.4 hPa | - | - | - | - |
| 1777705364 | 33.89° C | 54% | 1014.7 hPa | - | - | - | - |
| 1777704164 | 33.89° C | 54% | 1015.1 hPa | - | - | - | - |
| 1777702964 | 33.89° C | 54% | 1015.3 hPa | - | - | - | - |
| 1777700569 | 33.89° C | 54% | 1016.1 hPa | - | - | - | - |
| 1777699368 | 33.89° C | 54% | 1016.4 hPa | - | - | - | - |
| 1777698168 | 33.89° C | 55% | 1016.8 hPa | - | - | - | - |
| 1777697005 | 33.33° C | 55% | 1017.3 hPa | - | - | - | - |
| 1777696968 | 33.33° C | 55% | 1017.3 hPa | - | - | - | - |
| 1777695768 | 33.33° C | 56% | 1017.7 hPa | - | - | - | - |
| 1777694568 | 33.33° C | 55% | 1017.8 hPa | - | - | - | - |
| 1777693368 | 33.33° C | 56% | 1018.1 hPa | - | - | - | - |
| 1777692167 | 32.78° C | 58% | 1018.3 hPa | - | - | - | - |
| 1777691002 | 32.78° C | 58% | 1018.4 hPa | - | - | - | - |
| 1777690967 | 32.78° C | 58% | 1018.4 hPa | - | - | - | - |
| 1777689767 | 32.78° C | 59% | 1018.3 hPa | - | - | - | - |
| 1777688567 | 32.22° C | 59% | 1018.3 hPa | - | - | - | - |
| 1777674166 | 31.67° C | 62% | 1015.8 hPa | - | - | - | - |
| 1777672966 | 31.67° C | 62% | 1015.5 hPa | - | - | - | - |
| 1777671766 | 31.67° C | 61% | 1015.4 hPa | - | - | - | - |
| 1777670565 | 31.67° C | 61% | 1015.4 hPa | - | - | - | - |
* Rain since midnight (hover to see other rain measurements)
** Current wind speed in m/s (hover to see current wind gust speed)